Home   Weather   Harrisburg   Past weeks

Flag for USA Past Weather in Harrisburg, Pennsylvania, USA — Yesterday and Last 2 Weeks

Now
36 °F

Passing clouds.


Feels Like: 30 °F
Forecast: 30 / 42 °F
Wind: 7 mph from West

Location: Capital City Airport

Current Time: Dec 8, 2016 at 1:19:07 am

Latest Report: Dec 8, 2016 at 12:56 am


Visibility: 10 mi

Pressure: 30.04 "Hg

Humidity: 54%

Dew Point: 21 °F

Location of HarrisburgLocation

Past Weather in Harrisburg — Graph

°F

Harrisburg Temperature Yesterday

Maximum temperature yesterday: 48 °F (at 12:56 pm)
Minimum temperature yesterday: 38 °F (at 9:56 pm)
Average temperature yesterday: 42 °F

High & Low Weather Summary for the Past Weeks

 TemperatureHumidityPressure
High57 °F (Nov 30, 2:56 pm)97% (Nov 30, 8:56 am)30.38 "Hg (Nov 30, 8:56 am)
Low26 °F (Nov 23, 6:56 am)30% (Nov 23, 2:56 pm)29.50 "Hg (Nov 30, 10:56 pm)
Average44 °F66%30.07 "Hg
* Reported Nov 22 11:56 pm — Dec 7 11:56 pm, Harrisburg, Weather by CustomWeather, © 2016

Note: Actual official high and low records may vary slightly from our data, if they occured in-between our weather recording intervals... More about our weather records

Advertising

Harrisburg Weather History for the Previous 24 Hours

Scroll right to see more
 ConditionsComfort  
Time TempWeatherWind HumidityBarometerVisibility
11:56 pm
Wed, Dec 7
38 °FPassing clouds.7 mph53%30.05 "Hg10 mi
10:56 pm38 °FClear.5 mph55%30.06 "Hg10 mi
9:56 pm38 °FPassing clouds.3 mph65%30.06 "Hg10 mi
8:56 pm39 °FClear.5 mph60%30.06 "Hg10 mi
7:56 pm41 °FClear.6 mph58%30.06 "Hg10 mi
6:56 pm42 °FClear.5 mph62%30.06 "Hg10 mi
5:56 pm42 °FClear.3 mph68%30.05 "Hg10 mi
4:56 pm45 °FClear.3 mph53%30.05 "Hg10 mi
3:56 pm46 °FSunny.3 mph54%30.03 "Hg10 mi
2:56 pm47 °FSunny.6 mph50%30.03 "Hg10 mi
1:56 pm47 °FSunny.7 mph48%30.02 "Hg10 mi
12:56 pm48 °FSunny.12 mph48%30.01 "Hg10 mi
11:56 am46 °FPassing clouds.10 mph56%30.01 "Hg10 mi
10:56 am46 °FPassing clouds.10 mph63%30.03 "Hg10 mi
9:56 am44 °FSunny.8 mph82%30.04 "Hg7 mi
8:56 am40 °FFog.5 mph93%30.03 "Hg4 mi
7:56 am40 °FFog.No wind89%30.00 "Hg4 mi
6:56 am40 °FFog.5 mph89%30.00 "Hg6 mi
5:56 am40 °FLight rain. Mostly cloudy.3 mph89%29.96 "Hg8 mi
4:56 am40 °FOvercast.3 mph89%29.94 "Hg8 mi
3:56 am39 °FFog.5 mph93%29.94 "Hg4 mi
2:56 am39 °FFog.No wind89%29.91 "Hg2 mi
1:56 am39 °FLow clouds.No wind89%29.90 "Hg7 mi
Weather by CustomWeather, © 2016

See weather overviewHow to use our weather pages